Regional Weather Roundup
Issued by NWS

Home | Current Version | Previous Version | Graphics & Text | Print | Product List | Glossary On
Versions: 1 2 3 4 5 6 7 8 9 10 11 12 13 14 15 16 17 18 19 20 21 22 23 24 25 26 27 28 29 30 31 32 33 34 35 36 37 38 39 40 41 42 43 44 45 46 47 48 49 50
000
ASUS45 KTFX 282010
RWRMT
MONTANA REGIONAL WEATHER ROUNDUP
NATIONAL WEATHER SERVICE GREAT FALLS MT
200 PM MDT TUE JUL 28 2015

NOTE: "FAIR" INDICATES FEW OR NO CLOUDS BELOW 12000 FEET WITH NO
SIGNIFICANT WEATHER AND/OR OBSTRUCTIONS TO VISIBILITY.

MTZ001>007-043-282100-
WEST OF THE DIVIDE

CITY           SKY/WX    TMP DP  RH WIND       PRES   REMARKS
KALISPELL      PTCLDY    72  44  36 SE15      30.16F
MISSOULA       MOSUNNY   68  44  42 VRB3      30.22F
BUTTE          PTSUNNY   59  33  37 NW12      30.30S
MULLAN PASS    MOSUNNY   56  36  47 NW10G17   30.33R
DEER LODGE       N/A     63  39  42 CALM      30.30S
EUREKA           N/A     72  39  30 SE6       30.15S
HAMILTON         N/A     68  36  30 N2        30.25S
LIBBY            N/A     72  41  33 S3        30.18R
PLAINS           N/A     73  41  31 W5        30.19S
RONAN            N/A     69  42  37 S6        30.23F
$$

MTZ008-052>055-282100-
SOUTHWEST MONTANA

CITY           SKY/WX    TMP DP  RH WIND       PRES   REMARKS
BOZEMAN        CLOUDY    61  38  42 SW8       30.26R
DILLON         MOSUNNY   61  34  36 CALM      30.30S
W YELLOWSTONE  CLOUDY    52  36  54 SW10G16   30.36S
TWIN BRIDGES     N/A     61  38  42 E5        30.25S
$$

MTZ009-010-012-014-046-048-049-054-282100-
EAST SLOPES AND CENTRAL MONTANA

CITY           SKY/WX    TMP DP  RH WIND       PRES   REMARKS
CUT BANK       PTSUNNY   72  35  25 W14       30.10S
GREAT FALLS    PTSUNNY   73  37  27 W15G22    30.11S
MALMSTROM AFB  PTSUNNY   69  36  29 W14G23    30.11S
HELENA         PTSUNNY   72  40  31 SW20G25   30.19F
$$

MTZ011-013-016-021-045-047-050-051-282100-
NORTH CENTRAL MONTANA

CITY           SKY/WX    TMP DP  RH WIND       PRES   REMARKS
HAVRE          CLOUDY    72  44  36 NW29G38   29.99R
LEWISTOWN      CLOUDY    67  39  35 W24G35    30.11S
CHINOOK          N/A     72  41  33 W20G29    29.96R
FORT BENTON      N/A     73  36  25 W16G25    30.07S
$$

MTZ017>020-022>027-061-062-282100-
NORTHEAST MONTANA

CITY           SKY/WX    TMP DP  RH WIND       PRES   REMARKS
GLASGOW        LGT RAIN  57  53  86 W30G43    29.83R
JORDAN           N/A     68  47  46 W26G38    29.95R
SIDNEY         CLOUDY    59  54  82 SW29G47   29.72R
WOLF POINT     CLOUDY    62  53  72 W33G47    29.76R
MALTA            N/A    N/A N/A N/A MISG      29.89
PLENTYWOOD       N/A     57  54  88 W45G62    29.48R
POPLAR           N/A     59  54  82 W30G44    29.72R
$$

MTZ028>42-056>058-282100-
SOUTHCENTRAL AND SOUTHEAST MONTANA

CITY           SKY/WX    TMP DP  RH WIND       PRES   REMARKS
BILLINGS       PTSUNNY   69  36  29 W24G33    30.14S
LIVINGSTON     MOSUNNY   68  38  33 W24G32    30.22S
MILES CITY     LGT RAIN  60  50  69 NW24G32   29.99R
FORSYTH          N/A     70  43  37 W22G40    30.02S
LAUREL           N/A     71  35  26 W18       30.13S
ROUNDUP          N/A     69  33  26 W25       30.01S
$$

REGIONAL REPORTS...DAKOTAS

CITY           SKY/WX    TMP DP  RH WIND       PRES   REMARKS
WILLISTON      LGT RAIN  62  53  72 W38G49    29.59R
MINOT          LGT RAIN  67  49  52 SW31G53   29.52R
DICKINSON      CLOUDY    64  47  53 W43G58    29.78R
BEACH          CLOUDY    63  46  55 W45G54    29.84R
CROSBY         CLOUDY    57  57 100 W37G48    29.36S FOG
BISMARCK       PTSUNNY   73  50  44 W36G49    29.74R
GRAND FORKS    PTSUNNY   76  55  48 SW22G33   29.62R
FARGO          MOSUNNY   79  56  45 SW22G31   29.71R
BUFFALO SD       N/A     68  43  40 W45G59    29.92R
RAPID CITY     MOSUNNY   76  42  29 NW16      30.03R
$$

REGIONAL REPORTS...WYOMING/IDAHO/WASHINGTON

CITY           SKY/WX    TMP DP  RH WIND       PRES   REMARKS
GILLETTE       MOSUNNY   71  36  27 NW18G35   30.12R
SHERIDAN       CLOUDY    68  35  29 N25G36    30.12S
BUFFALO WY     MOSUNNY   69  37  30 N21G35    30.16S
CODY           SUNNY     64  32  29 W20G28    30.22S
YELLOWSTONE LA   N/A     48  30  49 CALM      30.41R
IDAHO FALLS    MOSUNNY   65  31  28 VRB3      30.32F
SALMON         PTSUNNY   59  43  55 CALM      30.30F
BOISE          SUNNY     74  37  26 W6        30.24F
SPOKANE        MOSUNNY   74  38  27 W9G16     30.22F
$$

REGIONAL REPORTS...ALBERTA

CITY           SKY/WX    TMP DP  RH WIND       PRES   REMARKS
EDMONTON       MOSUNNY   72  46  40 W15G23    29.91F
CALGARY        MOSUNNY   72  39  30 VRB6      30.03F
LETHBRIDGE     PTSUNNY   73  39  29 W14G24    30.04S
MEDICINE HAT   PTSUNNY   77  41  27 NW17G28   29.95R
WATERTON GATE    N/A     68  39  34 SW16G26     N/A
ONEFOUR          N/A     70  39  32 NW26G36     N/A
$$

REGIONAL REPORTS...SASKATCHEWAN

CITY           SKY/WX    TMP DP  RH WIND       PRES   REMARKS
SWIFT CURRENT  CLOUDY    57  54  88 NW18G28   29.79R
REGINA         LGT RAIN  63  61  94 N9        29.32R FOG
SASKATOON      LGT RAIN  59  55  88 N20G25    29.70R
CYPRESS HILLS    N/A     61  37  41 NW13G28     N/A
ROCKGLEN         N/A     54  52  94 W30G51      N/A
$$


USA.gov is the U.S. government's official web portal to all federal, state and local government web resources and services.